Været på Ålesund Lufhavn, Vigra (ENAL)

 

Time for time, neste 48 timer:

Detaljert varsel fra yr.no - 48 timer

Vindprognose for Breisundet:

Vindvarsel

Upper Winds 3000 fot akkurat nå:

ENAL akkurat nå:

  • METAR: 152120Z 05012KT CAVOK 13/11 Q1014
  • TAF: TAF 151700Z 1518/1521 05015KT CAVOK